Zurück zum Katalog

FENGYUN 1C DEB

AktivSSO
NORAD 30476·DEBRIS·🇨🇳 China

Gestartet May 10, 1999 von Taiyuan Satellite Launch Center

Loading…

Nächste Überflüge (nächste 24 Stunden)

TLE

AktuellSource: Space-Track

Epoche: Sep 14, 2026, 03:09 UTC

1 30476U 99025AGP 26257.13187404  .00001619  00000-0  74223-3 0  9993
2 30476  99.1052 308.2769 0044722 232.4606 152.4909 14.22292441  7553

Verfolge FENGYUN 1C DEB in Echtzeit mit AllMySat

Download on the App Store